CAPE
0 0 0 0 0 0 0 0 0 0 0 0 0 0 0 0 0 0 0 0 0 0 0 0 0 0 2001 2218 2398 2668 2816 2643 2558 2507 2776 2558 2459 2314 2340 2396 2822 2856 2808 2420 2186 1999 1853 1735 1546 1271 1160 1148 1163 1286 1307 1303 1273 1275 1415 1559 1523 1348 1228 1227 1287 1387 1454 1506 1396 1177 1049 1130 1159 1280 1384 1491 1527 1560 1560 1444 1319 1418 1517 1556 1539 1516
0 0 0 0 0 0 0 0 0 0 0 0 0 0 0 0 0 0 0 0 0 0 0 0 0 0 923 1934 2131 2567 2586 2566 2419 2446 2558 2366 2409 2355 2234 1979 2589 2453 2425 2209 2025 1904 1849 1692 1486 1306 1229 1219 1155 1283 1400 1433 1406 1386 1494 1607 1609 1546 1533 1519 1543 1584 1577 1454 1321 1165 1272 1292 1294 1249 1423 1579 1626 1552 1390 1394 1376 1391 1401 1413 1415 1447
0 0 0 0 0 0 0 0 0 0 0 0 0 0 0 0 0 0 0 0 0 0 0 0 0 0 0 1160 1898 2326 2421 2411 2467 2364 2254 2152 2228 2284 2001 1749 2238 2350 2295 2117 1949 1944 1862 1543 1461 1356 1209 1160 1163 1236 1504 1565 1552 1523 1594 1653 1655 1648 1601 1560 1533 1559 1351 1299 1405 1479 1398 1608 1595 1592 1549 1431 1415 1416 1467 1451 1460 1485 1504 1503 1505 1502
0 0 0 0 0 0 0 0 0 0 0 0 0 0 0 0 0 0 0 0 0 0 0 0 0 0 0 0 1577 2279 2454 2433 2431 2384 2371 2197 2143 1801 1398 1668 2216 2291 2190 2092 2010 1989 1746 1562 1420 1206 1268 1230 1147 1505 1746 1706 1664 1661 1705 1691 1489 1344 1341 1408 1402 1573 1688 1804 1756 1615 1633 1552 1320 1363 1235 1177 1181 1213 1257 1313 1316 1316 1272 1367 1426 1475
0 0 0 0 0 0 0 0 0 0 0 0 0 0 0 0 0 0 0 0 0 0 0 0 0 0 0 0 191 2019 2249 2367 2426 2266 2147 2076 1940 1576 1500 1862 1993 2228 2189 2089 2021 1937 1742 1665 1168 1188 1275 1413 1383 1535 1683 1621 1664 1738 1703 1473 1268 1305 1323 1399 1656 1822 1715 1602 1532 1531 1422 1200 1113 962 994 953 991 1016 1036 1098 1136 1192 1188 1247 1392 1468
0 0 0 0 0 0 0 0 0 0 0 0 0 0 0 0 0 0 0 0 0 0 0 0 0 0 0 0 0 855 1875 2103 2308 2230 1836 1850 1822 1426 1682 1627 1159 1459 1921 2129 2061 1937 1835 1545 1057 1164 1354 1465 1514 1518 1572 1568 1620 1665 1570 1318 1150 1299 1525 1638 1690 1691 1494 1388 1400 1278 1112 1074 1006 1011 1071 1068 994 964 1040 1150 1219 1246 1296 1313 1327 1371
0 0 0 0 0 0 0 0 0 0 0 0 0 0 0 0 0 0 0 0 0 0 0 0 0 0 0 0 0 173 1460 1409 1994 2183 1674 1708 1786 1836 1791 1359 987 808 1600 2238 2028 1884 1536 1130 1066 1208 1352 1507 1577 1554 1543 1528 1555 1590 1464 1413 1548 1647 1644 1652 1541 1450 1436 1360 1254 1107 1032 1095 1052 1093 1072 1080 1016 990 986 1042 1127 1175 1290 1325 1341 1324
0 0 0 0 0 0 0 0 0 0 0 0 0 0 0 0 0 0 0 0 0 0 0 0 0 0 0 0 0 51 1123 1420 1789 1712 1615 1584 1679 1637 1374 1227 1051 1088 1414 2240 1916 1613 1143 1074 1116 1204 1295 1377 1414 1401 1377 1361 1418 1530 1582 1604 1569 1558 1476 1364 1318 1271 1212 1130 1012 1008 1012 972 976 958 963 970 956 933 904 926 956 994 1006 1040 1076 1086
0 0 0 0 0 0 0 0 0 0 0 0 0 0 0 0 0 0 0 0 0 0 0 0 0 0 0 0 0 269 940 1351 1712 1589 1516 1505 1614 1677 1285 1248 1227 1125 1365 2016 1926 1446 1216 1313 1054 1002 1046 1102 1146 1272 1427 1506 1508 1550 1555 1512 1383 1328 1289 1195 1130 1143 1133 1048 990 965 979 983 950 894 881 845 864 851 859 861 852 796 733 680 709 763
0 0 0 0 0 0 0 0 0 0 0 0 0 0 0 0 0 0 0 0 0 0 0 0 0 0 0 0 257 470 912 1321 1644 1699 1651 1634 1463 1354 1260 1358 1148 1152 1556 2008 1817 1637 1540 1215 1043 986 974 1014 1161 1328 1447 1418 1459 1417 1372 1259 1158 1051 1031 1019 951 958 981 954 903 788 837 850 873 830 864 836 848 851 817 798 769 733 664 549 391 421
0 0 0 0 0 0 0 0 0 0 0 0 0 0 0 0 0 0 0 0 0 0 0 0 0 0 0 0 128 318 704 1206 1662 1619 1595 1622 1640 1199 1354 1285 1228 1432 1590 1826 1785 1700 1310 1147 1029 1023 1077 1134 1294 1437 1387 1250 1263 1246 1124 1045 915 901 888 846 822 769 692 738 741 731 719 747 762 742 725 692 647 617 636 649 660 614 539 443 103 8
0 0 0 0 0 0 0 0 0 0 0 0 0 0 0 0 0 0 0 0 0 0 0 0 0 0 0 0 35 324 734 1027 1479 1616 1463 1475 1590 1288 1248 1296 1375 1470 1580 1719 1472 1408 1353 1099 1018 1008 1061 1246 1393 1436 1296 1179 1094 1038 939 833 790 733 654 632 561 489 419 430 488 532 563 576 555 500 438 245 244 239 244 354 450 412 384 276 0 0
0 0 0 0 0 0 0 0 0 0 0 0 0 0 0 0 0 0 0 0 0 0 0 0 0 0 0 0 158 443 660 1020 1275 1629 1531 1426 1435 1152 1242 1390 1522 1541 1621 1648 1444 1401 1380 1170 977 936 1149 1214 1242 1194 1140 1052 969 904 873 754 630 604 529 473 443 436 521 477 447 389 388 402 430 414 404 354 0 0 0 0 0 0 0 0 0 0
0 0 0 0 0 0 0 0 0 0 0 0 0 0 0 0 0 0 0 0 0 0 0 0 0 0 0 0 0 575 713 976 1180 1635 1574 1428 1459 1482 1358 1538 1545 1578 1625 1644 1485 1510 1337 1177 888 919 1166 1022 952 1143 1082 1018 846 742 685 712 669 359 388 439 408 396 400 365 168 0 0 0 0 0 0 0 0 0 0 0 0 0 1 0 1 0
0 0 0 0 0 0 0 0 0 0 0 0 0 0 0 0 0 0 0 0 0 0 0 0 0 0 0 5 0 692 786 864 1102 1300 1546 1283 1553 1657 1530 1613 1642 1596 1623 1622 1436 1560 1296 1248 1028 1084 1038 931 809 865 1076 936 678 504 628 641 736 720 533 453 402 352 125 0 0 0 0 0 19 396 320 0 0 0 0 0 0 0 0 0 0 1
0 0 0 0 0 0 0 0 0 0 0 0 0 0 0 0 0 0 0 0 0 0 0 0 0 0 0 0 30 603 867 891 1048 1383 1096 1412 1492 1538 1480 1500 1664 1561 1546 1474 1570 1432 1410 1426 1158 992 937 987 868 846 753 552 488 677 703 508 578 616 610 575 538 513 419 210 0 0 15 421 367 0 0 0 0 0 0 0 0 0 0 0 0 0
0 0 0 0 0 0 0 0 0 0 0 0 0 0 0 0 0 0 0 0 0 0 0 0 0 0 0 30 88 227 847 920 1074 1198 1018 1007 837 1244 1170 1350 1604 1543 1590 1622 1646 1493 1503 1370 1188 1005 1005 903 904 843 667 655 680 745 679 623 587 496 393 502 580 527 537 489 450 469 448 0 0 0 0 0 0 0 0 0 0 0 0 0 0 0
0 0 0 0 0 0 0 0 0 0 0 0 0 0 0 0 0 0 0 0 0 0 0 0 0 0 0 0 113 400 642 908 1104 1087 1032 730 583 975 841 1240 1546 1607 1755 1781 1648 1568 1384 1268 1103 1049 946 824 855 870 723 621 682 691 647 536 506 463 426 611 763 718 676 602 459 353 160 0 0 0 0 0 0 0 0 0 0 0 0 0 0 0
0 0 0 0 0 0 0 0 0 0 0 0 0 0 0 0 0 0 0 0 0 0 0 0 0 1 0 141 190 503 554 864 1167 1183 1068 752 349 808 972 991 975 1590 1872 1757 1652 1482 1396 1333 1208 1182 973 920 958 962 902 755 704 600 525 509 470 471 430 555 790 812 790 617 410 169 0 0 0 0 0 0 0 0 0 0 0 0 0 0 0 0
0 0 0 0 0 0 0 0 0 0 0 0 0 0 0 0 0 0 0 0 0 0 0 0 0 0 0 0 169 615 535 871 1019 1126 1000 698 532 503 515 1066 891 1575 1800 1622 1236 1217 1404 1430 1354 1110 900 825 850 899 857 778 614 492 405 383 488 580 580 676 762 764 693 484 227 0 0 0 0 0 0 0 0 0 0 0 0 0 0 0 0 0
0 0 0 0 0 0 0 0 0 0 0 0 0 0 0 0 0 0 0 0 0 0 0 0 0 0 0 0 263 546 541 903 971 1038 1052 750 509 371 781 879 1065 1514 1254 943 1136 1042 1063 1065 1290 1025 881 901 894 807 750 660 528 398 282 334 498 614 483 563 642 602 546 250 17 0 0 0 0 0 0 0 0 0 0 0 0 2 2 1 0 0
0 0 0 0 0 0 0 0 0 0 0 0 0 0 0 0 0 0 0 0 0 0 0 0 0 0 0 0 74 568 549 783 872 938 927 695 583 528 528 665 962 1052 826 787 834 481 518 628 1196 1114 788 824 956 789 668 497 82 280 305 363 446 465 445 457 479 505 339 7 0 0 0 0 0 0 0 0 0 0 0 0 3 3 2 1 1 2
0 0 0 0 0 0 0 0 0 0 0 0 0 0 0 0 0 0 0 0 0 0 0 0 0 0 0 0 0 583 681 706 810 816 800 690 693 717 616 696 890 809 653 739 653 504 327 489 1021 818 832 878 832 670 534 246 242 166 51 0 271 351 313 298 357 287 85 0 0 0 0 0 0 0 0 0 0 0 0 0 1 2 1 0 0 0
18 0 0 0 0 0 0 0 0 0 0 0 0 0 0 0 0 0 0 0 0 0 0 0 0 180 96 255 112 578 737 682 742 858 862 795 759 765 706 711 847 834 678 645 488 143 207 237 904 920 882 869 746 512 147 203 253 217 110 5 0 190 200 240 219 77 0 0 0 0 0 0 0 0 0 0 0 0 0 0 0 0 0 0 1 0
0 0 0 0 0 0 0 0 0 0 0 0 0 0 0 0 0 0 0 0 0 0 0 0 0 0 185 262 336 528 710 729 700 727 681 685 726 756 756 760 675 736 759 595 477 196 265 358 835 902 783 523 357 342 328 431 426 377 268 19 0 144 166 151 36 0 0 0 0 0 0 0 0 0 0 0 0 0 0 0 0 0 1 1 0 0
0 0 0 0 0 0 0 0 0 0 0 0 0 0 0 0 0 0 0 0 0 0 0 0 0 0 258 346 264 471 666 831 759 718 719 710 664 780 771 782 776 719 619 592 565 570 529 315 619 733 605 405 386 500 526 542 474 262 1 0 0 136 84 0 0 0 0 0 0 0 0 0 0 0 0 0 0 0 0 0 0 1 1 1 0 0
0 0 0 0 0 0 0 0 0 0 0 0 0 0 0 0 0 0 0 0 0 0 0 0 0 13 183 309 293 362 527 723 782 712 645 712 781 797 799 726 725 287 386 683 688 637 565 357 604 612 531 465 539 641 636 538 148 1 3 1 0 0 0 0 0 0 0 0 0 0 0 0 0 0 0 0 0 0 0 0 0 1 1 1 0 1
0 0 0 0 0 0 0 0 0 0 0 0 0 0 0 0 0 0 0 0 0 0 0 0 0 74 204 329 339 361 438 614 685 706 716 629 659 690 656 629 643 585 346 523 685 331 438 361 518 499 429 453 578 674 321 247 1 0 0 0 0 0 0 0 0 0 0 0 0 0 0 0 0 0 0 0 0 0 0 0 1 1 0 1 1 1
0 0 0 0 0 154 0 205 26 0 0 0 0 0 0 0 0 0 0 0 0 0 0 0 0 2 160 375 344 359 421 564 642 642 618 568 567 578 574 548 583 514 503 340 455 629 587 356 363 352 334 435 419 298 260 150 2 0 0 0 0 0 0 0 0 0 0 0 0 0 0 0 0 0 0 0 0 0 0 0 0 1 0 0 1 2
0 0 0 2 9 142 153 92 0 0 0 0 0 0 0 0 0 0 0 0 0 0 0 0 0 5 133 409 336 354 370 460 530 602 543 531 532 588 614 631 640 413 404 357 366 434 489 343 366 348 340 329 279 264 298 154 1 0 0 0 0 0 0 0 0 0 0 0 0 0 0 0 0 0 0 0 0 0 0 0 0 0 0 1 2 1
0 0 0 8 2 100 124 9 0 0 0 0 0 0 0 0 0 0 0 0 0 0 0 0 0 3 187 435 384 377 407 442 473 552 598 656 698 716 739 778 650 465 450 354 332 336 267 271 395 387 302 213 254 314 335 193 8 0 0 0 0 0 0 0 0 0 0 0 0 0 0 0 0 0 0 0 0 0 0 0 0 0 0 0 1 1
0 2 3 12 10 5 65 1 45 0 0 0 0 0 0 0 0 0 0 0 0 0 0 0 0 2 204 448 445 409 450 533 547 605 666 738 855 821 819 805 541 384 398 461 520 282 328 318 256 162 205 272 179 151 163 146 0 0 0 0 0 0 0 0 0 0 0 0 0 0 0 0 0 0 0 0 0 0 0 0 0 0 1 1 0 1
0 0 104 8 9 30 106 143 49 4 0 0 0 0 0 0 0 0 0 0 0 0 0 0 0 0 220 422 451 440 518 564 594 634 713 732 724 727 732 670 639 350 588 535 307 307 229 105 28 18 13 9 17 39 47 26 0 0 0 0 0 0 0 0 0 0 0 0 0 0 0 0 0 0 0 0 0 0 0 0 0 0 0 1 0 1
0 2 70 6 4 136 2 71 86 24 0 37 0 0 0 0 0 0 0 0 0 0 0 0 0 22 170 348 422 414 486 557 550 481 629 674 646 617 674 677 614 274 362 227 204 117 109 32 11 16 4 1 24 15 9 1 0 0 0 0 0 0 0 0 0 0 0 0 0 0 0 0 0 0 0 0 0 0 0 0 0 0 0 0 1 1
0 2 11 4 67 51 90 0 0 32 2 212 36 435 84 0 0 0 1 0 0 0 0 0 8 55 256 344 336 348 412 448 522 508 504 598 653 630 483 274 207 171 134 123 146 178 123 72 52 1 27 48 44 16 6 0 0 0 0 0 0 0 0 0 0 0 0 0 0 0 0 0 0 0 0 0 0 0 0 0 0 0 0 0 0 0
2 2 6 5 52 16 5 3 2 0 114 83 114 45 198 0 1 0 1 2 0 0 0 0 36 148 221 296 322 347 416 469 523 578 587 592 468 386 272 248 270 334 294 233 102 62 22 27 23 0 18 37 34 20 5 0 0 0 2 2 0 0 0 1 2 3 0 0 0 0 0 0 0 0 0 0 0 0 0 0 0 0 0 0 0 0
4 9 7 11 0 25 4 2 0 165 24 55 3 1 21 0 0 0 0 0 0 0 0 29 69 160 194 254 315 321 416 480 489 407 448 404 334 268 265 310 372 378 267 29 18 31 18 48 34 5 3 19 15 13 0 0 1 5 6 11 1 0 2 4 6 6 2 0 0 0 0 0 0 0 0 0 0 0 0 0 0 0 0 0 0 0
5 10 11 12 7 0 0 14 0 0 6 0 14 188 175 240 74 0 0 0 0 0 7 12 76 127 169 248 285 269 424 461 413 352 377 366 376 352 289 175 274 278 206 118 22 31 36 51 54 24 1 2 2 0 0 0 37 33 9 7 6 4 5 5 4 3 0 0 0 0 0 0 0 0 0 0 0 0 0 0 0 0 0 0 0 0
4 10 23 18 32 0 0 1 4 0 0 0 0 216 363 221 195 322 0 0 0 0 7 4 77 98 145 223 242 270 354 392 433 403 353 346 359 349 291 230 238 188 81 48 57 49 46 50 34 13 0 0 0 0 4 10 19 12 7 6 4 4 5 5 5 4 1 0 0 0 0 0 0 0 0 0 0 0 0 0 0 0 0 0 0 0
9 11 20 18 14 2 3 0 19 3 260 54 70 226 267 353 265 260 0 0 0 0 0 48 94 97 121 193 222 259 330 442 502 451 325 342 350 291 231 164 117 26 56 50 52 48 38 25 21 25 11 1 1 0 2 2 0 1 1 2 2 3 3 2 0 0 0 0 0 0 0 0 0 0 0 0 0 0 0 0 0 0 0 0 0 0
71 15 12 6 6 9 24 25 4 7 0 50 202 232 207 279 331 58 5 10 0 40 88 51 96 91 113 147 201 281 305 423 392 287 292 336 276 217 143 48 36 53 83 75 31 11 6 10 15 22 27 11 2 0 0 0 0 0 0 0 0 0 0 0 0 0 0 0 0 0 0 0 0 0 0 0 0 0 0 0 0 0 0 0 0 0
50 44 23 6 5 5 4 6 20 1 0 43 220 183 258 95 96 118 57 39 99 91 88 102 118 95 94 145 148 271 311 411 412 285 327 338 269 199 118 63 27 82 44 11 0 2 16 20 9 2 0 0 0 0 0 0 0 0 0 0 0 0 0 0 0 0 0 0 0 0 0 0 0 0 0 0 0 0 0 0 0 0 0 0 0 0
29 36 10 0 1 1 8 8 21 3 0 0 247 82 217 24 18 0 0 0 0 0 0 115 122 146 85 135 187 266 312 348 388 276 326 348 214 135 64 23 72 49 14 0 0 1 4 0 0 0 0 0 0 0 0 0 0 0 0 0 0 0 0 0 0 0 0 0 0 0 0 0 0 0 0 0 0 0 0 0 0 0 0 0 0 0
23 15 7 1 0 119 2 2 20 0 0 130 207 165 138 0 279 155 0 0 1 30 25 119 129 158 140 160 210 270 283 280 311 277 332 100 108 31 0 24 44 7 0 0 0 0 0 0 0 0 0 0 0 0 0 0 0 0 0 0 0 0 0 0 0 0 0 0 0 0 0 0 0 0 0 0 0 0 0 0 0 0 0 0 0 0
26 7 2 91 0 2 34 0 0 0 0 80 201 190 132 6 170 197 0 0 0 172 229 149 82 167 157 167 194 226 279 276 273 277 313 199 41 30 8 3 3 0 0 0 0 0 0 0 0 0 0 0 0 0 0 0 0 0 0 0 0 0 0 0 0 0 0 0 0 0 0 0 0 0 0 0 0 0 0 0 0 0 0 0 0 0
26 8 17 16 14 0 0 0 95 0 0 136 191 198 196 46 158 195 78 0 0 0 80 27 176 180 122 147 186 210 279 253 270 221 82 86 116 98 24 10 4 0 0 0 0 0 0 0 0 0 0 0 0 0 0 0 0 0 0 0 0 0 0 0 0 0 0 0 0 0 0 0 0 0 0 0 0 0 0 0 0 0 0 0 0 0
50 18 40 120 120 0 82 0 0 0 0 148 149 78 163 28 53 29 44 1 0 0 36 175 191 0 22 133 214 227 242 219 95 52 60 110 84 47 20 35 2 0 0 0 0 0 0 0 0 0 0 0 0 0 0 0 0 0 0 0 0 0 0 0 0 0 0 0 0 0 0 0 0 0 0 0 0 0 0 0 0 0 0 0 0 0
29 1 32 42 78 0 2 47 0 0 0 0 158 157 134 124 64 55 23 10 0 0 0 35 118 0 0 76 183 212 57 44 30 194 150 52 88 44 79 27 3 0 0 2 2 0 0 0 0 0 0 0 0 0 0 0 0 0 0 0 0 0 0 0 0 0 0 0 0 0 0 0 0 0 0 0 0 0 0 0 0 0 0 0 0 0
52 0 40 9 104 16 1 0 0 0 0 0 0 149 151 154 47 87 40 46 58 26 4 0 0 0 0 25 126 50 67 94 48 224 176 16 225 173 18 1 8 5 3 3 3 0 0 0 0 0 0 0 0 0 0 0 0 0 0 0 0 0 0 0 0 0 0 0 0 0 0 0 0 0 0 0 0 0 0 0 0 0 0 0 0 0
0 57 0 0 53 2 16 6 3 0 2 0 0 145 149 126 69 71 84 88 84 91 48 12 12 67 82 39 2 26 75 33 40 18 129 162 150 11 0 0 4 7 6 6 2 0 0 0 0 0 0 0 0 0 0 0 0 0 0 0 0 0 0 0 0 0 0 0 0 0 0 0 0 0 0 0 0 0 0 0 0 0 0 0 0 0
0 12 0 0 0 3 3 2 0 0 0 0 0 0 0 0 8 32 68 86 65 41 42 31 16 0 56 109 32 160 123 219 108 22 23 15 39 23 0 0 9 16 2 1 1 0 0 0 0 0 0 0 0 0 0 0 0 0 0 0 0 0 0 0 0 0 0 0 0 0 0 0 0 0 0 0 0 0 0 0 0 0 0 0 0 0
Wind_Speed
nan nan nan nan nan nan nan nan nan nan nan nan nan nan nan nan nan nan nan nan nan nan nan nan nan nan 25 22 21 23 26 26 28 28 28 26 27 26 23 18 23 22 24 28 26 24 23 22 21 20 21 22 21 18 17 17 16 15 13 11 10 10 12 15 17 17 17 17 17 16 17 18 16 16 17 17 17 18 18 17 17 17 16 16 17 19
nan nan nan nan nan nan nan nan nan nan nan nan nan nan nan nan nan nan nan nan nan nan nan nan nan nan 19 18 20 25 29 27 27 26 23 20 23 20 16 21 26 28 29 29 27 25 23 21 20 20 21 22 22 21 21 20 19 17 15 12 12 11 13 16 16 17 16 15 15 16 16 17 18 18 18 17 18 19 19 19 18 18 17 18 18 20
nan nan nan nan nan nan nan nan nan nan nan nan nan nan nan nan nan nan nan nan nan nan nan nan nan nan nan 18 22 25 27 26 26 24 21 22 22 19 19 26 32 31 28 25 24 22 19 19 19 18 18 19 20 23 23 22 22 20 16 15 14 13 14 16 17 16 16 15 14 15 15 17 17 16 17 19 19 21 20 19 18 18 18 18 19 21
nan nan nan nan nan nan nan nan nan nan nan nan nan nan nan nan nan nan nan nan nan nan nan nan nan nan nan nan 26 25 26 27 24 23 33 34 31 26 22 25 31 30 24 18 18 18 17 16 17 18 18 19 20 22 23 22 22 20 19 17 16 15 14 17 16 16 14 13 14 14 16 16 18 19 19 20 21 22 22 20 20 18 19 19 19 20
nan nan nan nan nan nan nan nan nan nan nan nan nan nan nan nan nan nan nan nan nan nan nan nan nan nan nan nan 32 31 35 32 29 42 44 43 39 37 38 41 39 28 20 17 18 18 17 17 17 18 19 20 20 21 22 21 21 20 19 18 17 15 15 16 16 16 15 17 17 16 17 17 18 18 20 22 21 22 21 21 20 17 18 18 18 19
nan nan nan nan nan nan nan nan nan nan nan nan nan nan nan nan nan nan nan nan nan nan nan nan nan nan nan nan nan 27 32 29 29 32 34 34 33 30 26 25 24 29 22 18 17 16 17 17 18 19 20 21 21 22 22 21 21 21 20 19 18 18 18 19 18 18 18 17 17 17 18 18 19 20 20 23 21 20 20 18 16 15 16 17 17 18
nan nan nan nan nan nan nan nan nan nan nan nan nan nan nan nan nan nan nan nan nan nan nan nan nan nan nan nan nan 31 29 26 31 28 31 27 27 23 18 17 21 18 17 19 16 16 16 15 17 19 20 21 23 23 22 22 22 22 22 21 20 20 20 20 20 19 19 19 19 20 20 20 20 21 19 20 21 21 19 18 16 15 15 17 17 18
nan nan nan nan nan nan nan nan nan nan nan nan nan nan nan nan nan nan nan nan nan nan nan nan nan nan nan nan nan nan 28 27 29 34 31 27 24 23 22 27 33 23 17 16 13 14 15 14 16 19 20 21 23 23 23 23 22 23 23 22 21 21 21 21 21 22 20 21 20 21 21 21 20 21 21 21 23 24 22 21 19 17 17 18 18 17
nan nan nan nan nan nan nan nan nan nan nan nan nan nan nan nan nan nan nan nan nan nan nan nan nan nan nan nan nan 36 30 26 28 32 28 23 23 23 26 36 33 23 16 12 12 14 14 14 17 19 21 22 24 24 24 23 23 24 25 24 22 23 23 22 24 24 23 22 21 21 21 22 19 20 20 21 23 25 22 22 18 18 17 19 19 20
nan nan nan nan nan nan nan nan nan nan nan nan nan nan nan nan nan nan nan nan nan nan nan nan nan nan nan nan 37 36 30 25 27 27 25 22 24 25 28 28 22 17 11 10 14 18 16 16 17 19 22 23 24 25 26 25 25 26 25 25 25 24 23 23 25 25 24 22 22 23 22 22 20 20 20 23 24 24 22 21 18 17 18 19 19 20
nan nan nan nan nan nan nan nan nan nan nan nan nan nan nan nan nan nan nan nan nan nan nan nan nan nan nan nan 33 35 28 26 27 25 25 28 29 28 24 20 20 21 17 14 20 22 18 18 17 19 23 23 25 26 26 26 27 27 27 25 26 23 23 24 25 26 25 24 24 23 22 22 22 20 21 23 23 22 23 21 19 19 18 19 20 nan
nan nan nan nan nan nan nan nan nan nan nan nan nan nan nan nan nan nan nan nan nan nan nan nan nan nan nan nan nan 31 33 24 26 26 27 31 28 24 21 23 24 23 18 19 22 22 18 18 18 21 23 24 25 26 27 27 28 28 26 26 26 23 23 23 26 27 25 25 24 22 22 23 22 22 22 23 23 22 23 22 21 20 20 21 nan nan
nan nan nan nan nan nan nan nan nan nan nan nan nan nan nan nan nan nan nan nan nan nan nan nan nan nan nan nan 33 27 29 26 24 25 26 30 26 21 20 24 25 23 20 19 21 19 16 17 18 22 24 25 25 26 27 28 29 29 28 27 27 24 21 24 26 27 25 25 23 23 23 22 22 23 24 24 nan nan nan nan nan nan nan nan nan nan
nan nan nan nan nan nan nan nan nan nan nan nan nan nan nan nan nan nan nan nan nan nan nan nan nan nan nan nan nan 38 37 38 32 29 26 28 26 24 23 25 25 22 20 20 21 19 18 17 19 23 26 26 25 26 27 28 30 30 28 27 28 26 23 24 26 26 26 25 24 nan nan nan nan nan nan nan nan nan nan nan nan nan nan nan nan nan
nan nan nan nan nan nan nan nan nan nan nan nan nan nan nan nan nan nan nan nan nan nan nan nan nan nan nan nan nan 37 40 41 43 48 47 41 34 30 29 28 26 23 22 22 21 21 19 18 21 25 27 27 27 27 27 28 30 30 30 29 28 27 25 25 25 26 26 nan nan nan nan nan nan 25 25 nan nan nan nan nan nan nan nan nan nan nan
nan nan nan nan nan nan nan nan nan nan nan nan nan nan nan nan nan nan nan nan nan nan nan nan nan nan nan nan nan 39 41 39 40 44 45 44 39 31 33 29 24 22 22 22 23 23 22 22 23 26 27 27 29 28 28 30 30 30 31 30 28 28 25 24 25 25 26 26 nan nan nan 26 26 nan nan nan nan nan nan nan nan nan nan nan nan nan
nan nan nan nan nan nan nan nan nan nan nan nan nan nan nan nan nan nan nan nan nan nan nan nan nan nan nan nan nan 37 43 40 42 44 41 44 43 41 36 29 27 23 22 22 25 24 24 25 24 25 26 27 28 29 29 29 30 29 30 30 29 27 26 25 25 26 27 27 28 28 29 nan nan nan nan nan nan nan nan nan nan nan nan nan nan nan
nan nan nan nan nan nan nan nan nan nan nan nan nan nan nan nan nan nan nan nan nan nan nan nan nan nan nan nan 36 38 40 37 41 39 39 42 40 39 41 35 31 28 25 25 29 27 27 25 26 26 25 27 27 28 29 29 28 28 28 29 28 27 27 25 28 30 27 28 29 29 29 nan nan nan nan nan nan nan nan nan nan nan nan nan nan nan
nan nan nan nan nan nan nan nan nan nan nan nan nan nan nan nan nan nan nan nan nan nan nan nan nan nan nan 35 35 34 35 32 37 37 37 37 36 33 40 44 38 29 27 26 31 30 29 26 27 26 26 28 27 26 28 29 29 29 28 29 28 27 26 27 28 28 28 29 29 28 nan nan nan nan nan nan nan nan nan nan nan nan nan nan nan nan
nan nan nan nan nan nan nan nan nan nan nan nan nan nan nan nan nan nan nan nan nan nan nan nan nan nan nan nan 29 30 30 33 35 34 32 32 33 33 33 38 36 25 26 32 36 33 32 31 28 27 27 29 28 28 29 29 30 30 28 30 29 28 28 30 30 29 30 30 31 nan nan nan nan nan nan nan nan nan nan nan nan nan nan nan nan nan
nan nan nan nan nan nan nan nan nan nan nan nan nan nan nan nan nan nan nan nan nan nan nan nan nan nan nan nan 32 27 28 28 31 33 32 32 31 30 24 27 30 37 36 38 39 37 36 34 27 26 28 26 25 26 28 30 31 30 31 31 30 32 31 32 29 31 30 31 nan nan nan nan nan nan nan nan nan nan nan nan nan nan nan nan nan nan
nan nan nan nan nan nan nan nan nan nan nan nan nan nan nan nan nan nan nan nan nan nan nan nan nan nan nan nan nan 32 31 33 33 35 35 34 33 32 29 24 28 39 42 39 36 36 35 31 23 24 27 24 24 24 25 26 nan 33 33 31 31 33 32 32 32 32 33 nan nan nan nan nan nan nan nan nan nan nan nan nan nan nan nan nan nan nan
nan nan nan nan nan nan nan nan nan nan nan nan nan nan nan nan nan nan nan nan nan nan nan nan nan nan nan nan nan 37 37 35 36 34 35 34 33 33 29 26 25 31 36 37 36 34 32 27 22 23 27 27 26 25 24 25 27 28 nan nan 32 35 34 33 32 32 nan nan nan nan nan nan nan nan nan nan nan nan nan nan nan nan nan nan nan nan
nan nan nan nan nan nan nan nan nan nan nan nan nan nan nan nan nan nan nan nan nan nan nan nan nan 38 nan 40 40 41 39 38 39 36 36 35 35 34 32 29 28 29 30 34 37 37 33 31 26 23 26 26 26 26 27 26 26 26 28 nan nan 35 35 35 33 nan nan nan nan nan nan nan nan nan nan nan nan nan nan nan nan nan nan nan nan nan
nan nan nan nan nan nan nan nan nan nan nan nan nan nan nan nan nan nan nan nan nan nan nan nan nan nan 39 38 42 41 41 39 38 37 37 37 36 35 33 31 31 31 32 33 35 37 35 33 28 25 26 27 28 27 26 28 29 28 29 nan nan 34 35 36 nan nan nan nan nan nan nan nan nan nan nan nan nan nan nan nan nan nan nan nan nan nan
nan nan nan nan nan nan nan nan nan nan nan nan nan nan nan nan nan nan nan nan nan nan nan nan nan nan 39 39 41 40 41 41 38 38 37 37 37 36 34 34 34 33 35 36 34 33 31 31 31 29 29 30 30 28 27 29 29 30 nan nan nan 33 nan nan nan nan nan nan nan nan nan nan nan nan nan nan nan nan nan nan nan nan nan nan nan nan
nan nan nan nan nan nan nan nan nan nan nan nan nan nan nan nan nan nan nan nan nan nan nan nan nan nan 37 37 39 39 39 39 39 38 38 36 36 36 37 37 36 35 36 36 33 31 31 32 33 32 32 32 30 28 28 29 29 nan nan nan nan nan nan nan nan nan nan nan nan nan nan nan nan nan nan nan nan nan nan nan nan nan nan nan nan nan
nan nan nan nan nan nan nan nan nan nan nan nan nan nan nan nan nan nan nan nan nan nan nan nan nan nan 35 37 38 38 39 39 38 39 39 38 37 37 38 38 37 38 36 33 31 31 31 31 33 34 33 32 30 30 32 31 nan nan nan nan nan nan nan nan nan nan nan nan nan nan nan nan nan nan nan nan nan nan nan nan nan nan nan nan nan nan
nan nan nan nan nan 40 nan 39 nan nan nan nan nan nan nan nan nan nan nan nan nan nan nan nan nan nan 35 33 34 35 37 37 38 38 39 40 39 38 38 39 37 38 38 37 32 30 31 33 33 35 34 33 33 35 35 35 nan nan nan nan nan nan nan nan nan nan nan nan nan nan nan nan nan nan nan nan nan nan nan nan nan nan nan nan nan nan
nan nan nan nan nan 39 43 nan nan nan nan nan nan nan nan nan nan nan nan nan nan nan nan nan nan nan 42 39 42 42 43 43 42 42 40 40 39 38 38 38 38 37 39 39 36 33 34 36 36 36 35 34 34 36 36 35 nan nan nan nan nan nan nan nan nan nan nan nan nan nan nan nan nan nan nan nan nan nan nan nan nan nan nan nan nan nan
nan nan nan nan nan nan 46 nan nan nan nan nan nan nan nan nan nan nan nan nan nan nan nan nan nan nan 42 45 47 47 48 47 46 43 41 40 40 39 37 35 36 36 36 37 36 36 36 37 40 41 40 38 37 39 39 37 nan nan nan nan nan nan nan nan nan nan nan nan nan nan nan nan nan nan nan nan nan nan nan nan nan nan nan nan nan nan
nan nan nan nan nan nan nan nan nan nan nan nan nan nan nan nan nan nan nan nan nan nan nan nan nan nan 37 43 45 45 45 46 45 44 43 41 41 40 37 34 33 34 34 35 36 36 38 40 43 45 45 44 42 42 41 39 nan nan nan nan nan nan nan nan nan nan nan nan nan nan nan nan nan nan nan nan nan nan nan nan nan nan nan nan nan nan
nan nan 39 nan nan nan 41 43 nan nan nan nan nan nan nan nan nan nan nan nan nan nan nan nan nan nan 37 39 41 37 39 40 40 39 41 41 40 39 38 36 35 35 35 35 37 38 41 44 nan nan nan nan nan nan nan nan nan nan nan nan nan nan nan nan nan nan nan nan nan nan nan nan nan nan nan nan nan nan nan nan nan nan nan nan nan nan
nan nan nan nan nan 36 nan nan nan nan nan nan nan nan nan nan nan nan nan nan nan nan nan nan nan nan 40 37 33 30 31 30 33 34 37 38 37 35 35 37 37 39 39 39 41 45 46 nan nan nan nan nan nan nan nan nan nan nan nan nan nan nan nan nan nan nan nan nan nan nan nan nan nan nan nan nan nan nan nan nan nan nan nan nan nan nan
nan nan nan nan nan nan nan nan nan nan nan 40 nan 39 nan nan nan nan nan nan nan nan nan nan nan nan 35 36 36 34 34 34 34 35 33 34 36 35 35 34 36 37 40 42 44 45 47 nan nan nan nan nan nan nan nan nan nan nan nan nan nan nan nan nan nan nan nan nan nan nan nan nan nan nan nan nan nan nan nan nan nan nan nan nan nan nan
nan nan nan nan nan nan nan nan nan nan 39 nan 39 nan 41 nan nan nan nan nan nan nan nan nan nan 42 41 42 42 40 40 39 38 35 34 30 32 36 34 35 35 37 39 38 43 nan nan nan nan nan nan nan nan nan nan nan nan nan nan nan nan nan nan nan nan nan nan nan nan nan nan nan nan nan nan nan nan nan nan nan nan nan nan nan nan nan
nan nan nan nan nan nan nan nan nan 39 nan nan nan nan nan nan nan nan nan nan nan nan nan nan nan 43 44 43 44 43 43 45 43 39 34 35 33 32 37 37 38 39 40 nan nan nan nan nan nan nan nan nan nan nan nan nan nan nan nan nan nan nan nan nan nan nan nan nan nan nan nan nan nan nan nan nan nan nan nan nan nan nan nan nan nan nan
nan nan nan nan nan nan nan nan nan nan nan nan nan 38 37 39 nan nan nan nan nan nan nan nan nan 42 42 41 42 43 45 47 42 36 35 39 39 42 39 41 42 43 43 43 nan nan nan nan nan nan nan nan nan nan nan nan nan nan nan nan nan nan nan nan nan nan nan nan nan nan nan nan nan nan nan nan nan nan nan nan nan nan nan nan nan nan
nan nan nan nan nan nan nan nan nan nan nan nan nan 34 37 38 39 39 nan nan nan nan nan nan nan nan 36 37 38 40 42 39 35 37 35 41 41 43 45 43 45 44 nan nan nan nan nan nan nan nan nan nan nan nan nan nan nan nan nan nan nan nan nan nan nan nan nan nan nan nan nan nan nan nan nan nan nan nan nan nan nan nan nan nan nan nan
nan nan nan nan nan nan nan nan nan nan 32 nan nan 36 34 35 36 39 nan nan nan nan nan nan nan nan 32 33 35 37 38 38 34 35 39 42 44 43 47 47 47 nan nan nan nan nan nan nan nan nan nan nan nan nan nan nan nan nan nan nan nan nan nan nan nan nan nan nan nan nan nan nan nan nan nan nan nan nan nan nan nan nan nan nan nan nan
nan nan nan nan nan nan nan nan nan nan nan nan 32 31 33 33 37 nan nan nan nan nan nan nan nan nan 36 35 33 34 38 43 46 48 46 47 46 43 41 nan nan nan nan nan nan nan nan nan nan nan nan nan nan nan nan nan nan nan nan nan nan nan nan nan nan nan nan nan nan nan nan nan nan nan nan nan nan nan nan nan nan nan nan nan nan nan
nan nan nan nan nan nan nan nan nan nan nan nan 34 30 28 nan nan 24 nan nan nan nan nan 32 36 nan nan 37 41 44 42 51 51 48 48 47 45 40 38 nan nan nan nan nan nan nan nan nan nan nan nan nan nan nan nan nan nan nan nan nan nan nan nan nan nan nan nan nan nan nan nan nan nan nan nan nan nan nan nan nan nan nan nan nan nan nan
nan nan nan nan nan nan nan nan nan nan nan nan 35 nan 31 nan nan nan nan nan nan nan nan 34 36 38 nan 43 43 44 45 49 48 46 45 44 42 39 nan nan nan nan nan nan nan nan nan nan nan nan nan nan nan nan nan nan nan nan nan nan nan nan nan nan nan nan nan nan nan nan nan nan nan nan nan nan nan nan nan nan nan nan nan nan nan nan
nan nan nan nan nan 31 nan nan nan nan nan 31 30 27 25 nan 25 22 nan nan nan nan nan 34 34 38 41 43 43 43 45 47 44 42 41 nan 38 nan nan nan nan nan nan nan nan nan nan nan nan nan nan nan nan nan nan nan nan nan nan nan nan nan nan nan nan nan nan nan nan nan nan nan nan nan nan nan nan nan nan nan nan nan nan nan nan nan
nan nan nan nan nan nan nan nan nan nan nan nan 29 27 26 nan 24 21 nan nan nan 23 28 33 nan 39 40 41 42 43 43 43 40 38 39 36 nan nan nan nan nan nan nan nan nan nan nan nan nan nan nan nan nan nan nan nan nan nan nan nan nan nan nan nan nan nan nan nan nan nan nan nan nan nan nan nan nan nan nan nan nan nan nan nan nan nan
nan nan nan nan nan nan nan nan nan nan nan 27 28 26 24 nan 24 24 nan nan nan nan nan nan 34 37 37 39 41 38 41 40 41 37 nan nan 37 nan nan nan nan nan nan nan nan nan nan nan nan nan nan nan nan nan nan nan nan nan nan nan nan nan nan nan nan nan nan nan nan nan nan nan nan nan nan nan nan nan nan nan nan nan nan nan nan nan
nan nan nan 32 26 nan nan nan nan nan nan 26 26 nan 25 nan nan nan nan nan nan nan nan 23 26 nan nan 34 39 38 38 39 nan nan nan 38 nan nan nan nan nan nan nan nan nan nan nan nan nan nan nan nan nan nan nan nan nan nan nan nan nan nan nan nan nan nan nan nan nan nan nan nan nan nan nan nan nan nan nan nan nan nan nan nan nan nan
nan nan nan nan nan nan nan nan nan nan nan nan 26 24 25 25 nan nan nan nan nan nan nan nan 24 nan nan nan 32 36 nan nan nan 37 37 nan nan nan nan nan nan nan nan nan nan nan nan nan nan nan nan nan nan nan nan nan nan nan nan nan nan nan nan nan nan nan nan nan nan nan nan nan nan nan nan nan nan nan nan nan nan nan nan nan nan nan
nan nan nan nan 22 nan nan nan nan nan nan nan nan 26 23 22 nan nan nan nan nan nan nan nan nan nan nan nan 30 nan nan nan nan 36 36 nan 35 34 nan nan nan nan nan nan nan nan nan nan nan nan nan nan nan nan nan nan nan nan nan nan nan nan nan nan nan nan nan nan nan nan nan nan nan nan nan nan nan nan nan nan nan nan nan nan nan nan
nan nan nan nan nan nan nan nan nan nan nan nan nan 25 24 24 nan nan nan nan nan nan nan nan nan nan nan nan nan nan nan nan nan nan 34 33 33 nan nan nan nan nan nan nan nan nan nan nan nan nan nan nan nan nan nan nan nan nan nan nan nan nan nan nan nan nan nan nan nan nan nan nan nan nan nan nan nan nan nan nan nan nan nan nan nan nan
nan nan nan nan nan nan nan nan nan nan nan nan nan nan nan nan nan nan nan nan nan nan nan nan nan nan nan 29 nan 29 29 29 28 nan nan nan nan nan nan nan nan nan nan nan nan nan nan nan nan nan nan nan nan nan nan nan nan nan nan nan nan nan nan nan nan nan nan nan nan nan nan nan nan nan nan nan nan nan nan nan nan nan nan nan nan nan
Wind_Direction
nan nan nan nan nan nan nan nan nan nan nan nan nan nan nan nan nan nan nan nan nan nan nan nan nan nan 254 252 252 256 257 254 254 256 251 256 262 265 257 244 244 254 253 253 254 252 252 252 248 248 248 247 247 256 269 276 279 280 279 276 263 253 248 251 256 257 263 270 276 276 281 290 293 294 293 293 296 299 306 306 306 303 301 297 293 291
nan nan nan nan nan nan nan nan nan nan nan nan nan nan nan nan nan nan nan nan nan nan nan nan nan nan 259 255 250 245 251 249 254 255 258 266 261 266 258 244 244 249 246 252 251 252 250 250 254 252 249 254 257 259 269 275 276 276 274 272 262 256 253 253 255 259 265 271 279 285 291 290 290 288 288 294 298 305 304 305 305 304 300 297 297 295
nan nan nan nan nan nan nan nan nan nan nan nan nan nan nan nan nan nan nan nan nan nan nan nan nan nan nan 238 236 244 251 250 250 256 265 264 256 246 233 231 240 242 245 246 249 250 249 252 256 254 254 253 256 261 263 266 270 270 268 263 264 260 258 258 257 261 265 266 276 285 289 289 285 287 291 294 294 294 298 300 302 300 296 297 297 298
nan nan nan nan nan nan nan nan nan nan nan nan nan nan nan nan nan nan nan nan nan nan nan nan nan nan nan nan 222 230 247 247 249 243 230 234 238 231 227 233 236 239 240 243 247 252 252 252 253 257 259 257 258 260 260 263 264 262 258 262 265 265 260 259 262 265 268 275 277 281 288 290 283 283 284 287 285 288 292 297 303 301 301 301 300 298
nan nan nan nan nan nan nan nan nan nan nan nan nan nan nan nan nan nan nan nan nan nan nan nan nan nan nan nan 221 217 223 230 237 235 235 236 241 239 229 220 214 219 224 230 243 249 253 254 255 257 259 260 260 258 258 262 260 256 256 260 264 261 257 257 260 264 265 267 267 272 272 273 274 275 273 276 278 283 292 293 292 294 298 301 300 297
nan nan nan nan nan nan nan nan nan nan nan nan nan nan nan nan nan nan nan nan nan nan nan nan nan nan nan nan nan 242 236 239 242 248 244 246 244 251 260 252 217 185 185 214 237 246 252 249 250 252 257 258 258 257 257 253 252 254 251 253 254 252 250 253 253 257 258 259 268 269 268 266 266 271 273 275 283 281 281 284 289 285 287 292 294 295
nan nan nan nan nan nan nan nan nan nan nan nan nan nan nan nan nan nan nan nan nan nan nan nan nan nan nan nan nan 237 246 247 250 247 243 245 245 245 245 228 217 218 193 209 223 240 246 244 246 248 252 256 255 250 249 249 248 247 246 248 252 253 254 254 254 257 259 258 261 266 272 277 280 280 281 286 290 292 287 286 283 282 285 290 293 292
nan nan nan nan nan nan nan nan nan nan nan nan nan nan nan nan nan nan nan nan nan nan nan nan nan nan nan nan nan nan 243 251 251 253 249 246 245 242 231 218 213 213 220 216 228 235 234 239 246 255 253 249 251 251 249 248 247 248 248 250 252 253 255 254 255 251 254 263 264 266 266 270 275 279 281 280 283 288 285 281 278 282 279 280 284 282
nan nan nan nan nan nan nan nan nan nan nan nan nan nan nan nan nan nan nan nan nan nan nan nan nan nan nan nan nan 240 239 242 250 254 259 253 248 247 239 228 225 221 214 226 228 240 240 249 250 250 250 249 250 249 249 249 248 248 250 253 253 254 255 253 253 253 251 260 265 267 270 266 266 274 275 280 281 279 280 279 276 275 276 276 279 282
nan nan nan nan nan nan nan nan nan nan nan nan nan nan nan nan nan nan nan nan nan nan nan nan nan nan nan nan 229 235 241 250 250 257 264 264 256 247 240 236 231 237 261 252 238 242 232 236 244 247 249 248 246 244 245 243 245 247 250 252 253 254 257 258 256 256 256 258 261 262 262 268 265 268 271 273 273 277 279 277 272 270 271 271 272 272
nan nan nan nan nan nan nan nan nan nan nan nan nan nan nan nan nan nan nan nan nan nan nan nan nan nan nan nan 238 246 242 253 253 254 256 256 252 246 245 245 231 235 261 254 242 241 234 236 240 246 249 250 247 247 245 242 243 245 248 252 253 256 259 259 258 257 259 260 261 264 265 267 268 268 270 270 272 276 275 270 268 268 271 272 272 nan
nan nan nan nan nan nan nan nan nan nan nan nan nan nan nan nan nan nan nan nan nan nan nan nan nan nan nan nan nan 230 231 254 262 261 268 265 265 259 249 237 234 242 247 239 237 240 236 240 240 243 251 251 250 248 246 243 244 245 248 251 254 252 256 257 259 260 261 264 264 266 268 269 270 271 272 272 272 272 272 270 268 270 271 268 nan nan
nan nan nan nan nan nan nan nan nan nan nan nan nan nan nan nan nan nan nan nan nan nan nan nan nan nan nan nan 227 240 232 239 252 257 271 276 277 269 252 241 239 240 237 229 233 234 233 243 252 255 254 251 250 248 247 247 246 247 248 252 254 253 253 258 262 265 266 265 265 266 267 269 273 275 276 276 nan nan nan nan nan nan nan nan nan nan
nan nan nan nan nan nan nan nan nan nan nan nan nan nan nan nan nan nan nan nan nan nan nan nan nan nan nan nan nan 223 226 219 227 235 253 268 266 267 261 250 247 245 234 227 234 231 238 251 258 261 255 252 253 254 251 250 249 247 250 252 255 254 253 260 264 267 269 268 268 nan nan nan nan nan nan nan nan nan nan nan nan nan nan nan nan nan
nan nan nan nan nan nan nan nan nan nan nan nan nan nan nan nan nan nan nan nan nan nan nan nan nan nan nan nan nan 217 223 231 237 235 227 226 227 237 238 241 250 249 233 234 239 239 249 259 262 262 259 257 258 256 254 253 252 253 252 254 256 255 253 259 265 267 268 nan nan nan nan nan nan 266 266 nan nan nan nan nan nan nan nan nan nan nan
nan nan nan nan nan nan nan nan nan nan nan nan nan nan nan nan nan nan nan nan nan nan nan nan nan nan nan nan nan 227 233 234 238 240 242 235 220 230 233 231 239 243 236 238 243 247 256 259 258 262 262 262 259 255 254 256 255 252 251 251 254 259 260 262 265 266 267 267 nan nan nan 268 269 nan nan nan nan nan nan nan nan nan nan nan nan nan
nan nan nan nan nan nan nan nan nan nan nan nan nan nan nan nan nan nan nan nan nan nan nan nan nan nan nan nan nan 233 233 232 235 238 242 243 228 226 218 216 225 227 232 237 243 248 255 256 258 262 265 263 259 256 253 253 254 254 251 251 252 255 256 259 262 264 263 264 264 265 268 nan nan nan nan nan nan nan nan nan nan nan nan nan nan nan
nan nan nan nan nan nan nan nan nan nan nan nan nan nan nan nan nan nan nan nan nan nan nan nan nan nan nan nan 231 235 236 236 241 246 249 252 246 235 229 214 213 218 219 229 243 245 252 256 262 263 262 262 262 260 255 252 249 247 248 249 249 249 253 254 256 257 259 262 263 266 268 nan nan nan nan nan nan nan nan nan nan nan nan nan nan nan
nan nan nan nan nan nan nan nan nan nan nan nan nan nan nan nan nan nan nan nan nan nan nan nan nan nan nan 224 229 240 243 244 248 252 255 258 261 254 244 232 215 219 222 233 247 245 250 252 260 263 263 261 260 260 255 249 249 248 246 245 246 248 250 254 258 261 260 262 265 268 nan nan nan nan nan nan nan nan nan nan nan nan nan nan nan nan
nan nan nan nan nan nan nan nan nan nan nan nan nan nan nan nan nan nan nan nan nan nan nan nan nan nan nan nan 238 234 244 250 252 258 265 266 266 267 253 241 228 221 237 233 236 240 242 244 249 255 257 259 260 258 253 251 251 251 251 252 252 251 251 252 254 259 261 261 264 nan nan nan nan nan nan nan nan nan nan nan nan nan nan nan nan nan
nan nan nan nan nan nan nan nan nan nan nan nan nan nan nan nan nan nan nan nan nan nan nan nan nan nan nan nan 242 238 244 252 260 262 263 261 259 261 259 261 241 216 223 231 224 228 230 238 240 245 249 248 248 250 249 248 251 252 252 253 253 255 254 253 255 258 260 261 nan nan nan nan nan nan nan nan nan nan nan nan nan nan nan nan nan nan
nan nan nan nan nan nan nan nan nan nan nan nan nan nan nan nan nan nan nan nan nan nan nan nan nan nan nan nan nan 240 236 239 237 253 251 251 253 255 252 234 235 239 234 237 238 241 237 228 231 241 247 250 252 251 251 249 nan 250 250 252 254 254 252 255 252 256 259 nan nan nan nan nan nan nan nan nan nan nan nan nan nan nan nan nan nan nan
nan nan nan nan nan nan nan nan nan nan nan nan nan nan nan nan nan nan nan nan nan nan nan nan nan nan nan nan nan 237 241 241 240 247 250 248 253 254 250 254 241 240 254 258 260 263 253 236 235 251 256 254 256 257 255 253 253 254 nan nan 252 254 252 253 254 255 nan nan nan nan nan nan nan nan nan nan nan nan nan nan nan nan nan nan nan nan
nan nan nan nan nan nan nan nan nan nan nan nan nan nan nan nan nan nan nan nan nan nan nan nan nan 221 nan 219 227 237 242 242 242 242 246 245 248 251 255 259 261 254 242 243 256 262 253 240 242 257 258 255 257 260 260 261 260 257 255 nan nan 253 253 253 253 nan nan nan nan nan nan nan nan nan nan nan nan nan nan nan nan nan nan nan nan nan
nan nan nan nan nan nan nan nan nan nan nan nan nan nan nan nan nan nan nan nan nan nan nan nan nan nan 221 226 233 238 244 247 248 247 248 249 250 254 258 257 256 259 261 263 265 266 263 256 255 259 262 261 261 260 263 264 263 260 257 nan nan 252 253 253 nan nan nan nan nan nan nan nan nan nan nan nan nan nan nan nan nan nan nan nan nan nan
nan nan nan nan nan nan nan nan nan nan nan nan nan nan nan nan nan nan nan nan nan nan nan nan nan nan 230 236 241 243 247 249 250 252 250 253 258 260 260 262 265 268 272 273 272 268 265 263 263 266 265 263 262 263 265 265 264 263 nan nan nan 253 nan nan nan nan nan nan nan nan nan nan nan nan nan nan nan nan nan nan nan nan nan nan nan nan
nan nan nan nan nan nan nan nan nan nan nan nan nan nan nan nan nan nan nan nan nan nan nan nan nan nan 236 247 252 252 253 256 259 260 263 261 259 261 264 267 271 274 276 274 268 266 267 267 268 267 264 264 266 266 268 270 268 nan nan nan nan nan nan nan nan nan nan nan nan nan nan nan nan nan nan nan nan nan nan nan nan nan nan nan nan nan
nan nan nan nan nan nan nan nan nan nan nan nan nan nan nan nan nan nan nan nan nan nan nan nan nan nan 239 245 250 255 255 256 255 260 265 264 264 264 264 263 267 276 277 264 254 264 272 270 268 266 266 268 270 273 272 269 nan nan nan nan nan nan nan nan nan nan nan nan nan nan nan nan nan nan nan nan nan nan nan nan nan nan nan nan nan nan
nan nan nan nan nan 200 nan 195 nan nan nan nan nan nan nan nan nan nan nan nan nan nan nan nan nan nan 245 254 261 265 266 264 262 261 261 263 262 262 263 266 268 272 274 268 261 269 277 273 267 267 270 274 277 277 274 272 nan nan nan nan nan nan nan nan nan nan nan nan nan nan nan nan nan nan nan nan nan nan nan nan nan nan nan nan nan nan
nan nan nan nan nan 199 197 nan nan nan nan nan nan nan nan nan nan nan nan nan nan nan nan nan nan nan 229 242 245 245 248 254 255 255 257 262 266 266 267 270 272 275 278 278 275 274 276 277 275 273 274 277 279 278 274 271 nan nan nan nan nan nan nan nan nan nan nan nan nan nan nan nan nan nan nan nan nan nan nan nan nan nan nan nan nan nan
nan nan nan nan nan nan 195 nan nan nan nan nan nan nan nan nan nan nan nan nan nan nan nan nan nan nan 228 239 244 246 248 251 255 262 264 264 267 271 272 273 274 274 271 270 271 273 274 276 277 278 280 280 278 276 274 271 nan nan nan nan nan nan nan nan nan nan nan nan nan nan nan nan nan nan nan nan nan nan nan nan nan nan nan nan nan nan
nan nan nan nan nan nan nan nan nan nan nan nan nan nan nan nan nan nan nan nan nan nan nan nan nan nan 234 246 247 250 254 259 262 265 266 267 271 274 274 272 271 269 268 268 269 270 272 273 276 280 282 280 277 275 273 272 nan nan nan nan nan nan nan nan nan nan nan nan nan nan nan nan nan nan nan nan nan nan nan nan nan nan nan nan nan nan
nan nan 193 nan nan nan 198 202 nan nan nan nan nan nan nan nan nan nan nan nan nan nan nan nan nan nan 245 252 256 259 263 265 267 269 268 269 272 275 275 273 269 267 267 269 270 270 271 272 nan nan nan nan nan nan nan nan nan nan nan nan nan nan nan nan nan nan nan nan nan nan nan nan nan nan nan nan nan nan nan nan nan nan nan nan nan nan
nan nan nan nan nan 194 nan nan nan nan nan nan nan nan nan nan nan nan nan nan nan nan nan nan nan nan 245 252 263 273 280 279 274 268 270 271 271 270 271 272 271 271 269 268 270 271 271 nan nan nan nan nan nan nan nan nan nan nan nan nan nan nan nan nan nan nan nan nan nan nan nan nan nan nan nan nan nan nan nan nan nan nan nan nan nan nan
nan nan nan nan nan nan nan nan nan nan nan 198 nan 195 nan nan nan nan nan nan nan nan nan nan nan nan 246 243 247 246 249 253 260 265 265 273 276 279 281 279 279 278 277 276 273 272 272 nan nan nan nan nan nan nan nan nan nan nan nan nan nan nan nan nan nan nan nan nan nan nan nan nan nan nan nan nan nan nan nan nan nan nan nan nan nan nan
nan nan nan nan nan nan nan nan nan nan 198 nan 194 nan 202 nan nan nan nan nan nan nan nan nan nan 241 242 245 244 244 249 247 244 247 262 265 275 282 281 280 277 276 276 274 274 nan nan nan nan nan nan nan nan nan nan nan nan nan nan nan nan nan nan nan nan nan nan nan nan nan nan nan nan nan nan nan nan nan nan nan nan nan nan nan nan nan
nan nan nan nan nan nan nan nan nan 200 nan nan nan nan nan nan nan nan nan nan nan nan nan nan nan 241 243 242 245 249 249 248 246 240 241 258 256 261 277 278 279 274 271 nan nan nan nan nan nan nan nan nan nan nan nan nan nan nan nan nan nan nan nan nan nan nan nan nan nan nan nan nan nan nan nan nan nan nan nan nan nan nan nan nan nan nan
nan nan nan nan nan nan nan nan nan nan nan nan nan 203 214 211 nan nan nan nan nan nan nan nan nan 244 246 248 252 253 253 251 250 249 250 257 264 269 266 269 272 273 271 269 nan nan nan nan nan nan nan nan nan nan nan nan nan nan nan nan nan nan nan nan nan nan nan nan nan nan nan nan nan nan nan nan nan nan nan nan nan nan nan nan nan nan
nan nan nan nan nan nan nan nan nan nan nan nan nan 210 216 219 225 221 nan nan nan nan nan nan nan nan 254 260 259 259 256 258 257 256 256 265 269 273 274 272 273 275 nan nan nan nan nan nan nan nan nan nan nan nan nan nan nan nan nan nan nan nan nan nan nan nan nan nan nan nan nan nan nan nan nan nan nan nan nan nan nan nan nan nan nan nan
nan nan nan nan nan nan nan nan nan nan 210 nan nan 212 218 224 226 223 nan nan nan nan nan nan nan nan 249 255 263 263 266 263 264 262 263 268 272 273 276 277 275 nan nan nan nan nan nan nan nan nan nan nan nan nan nan nan nan nan nan nan nan nan nan nan nan nan nan nan nan nan nan nan nan nan nan nan nan nan nan nan nan nan nan nan nan nan
nan nan nan nan nan nan nan nan nan nan nan nan 215 215 224 227 226 nan nan nan nan nan nan nan nan nan 250 256 254 257 240 238 249 262 266 268 268 264 263 nan nan nan nan nan nan nan nan nan nan nan nan nan nan nan nan nan nan nan nan nan nan nan nan nan nan nan nan nan nan nan nan nan nan nan nan nan nan nan nan nan nan nan nan nan nan nan
nan nan nan nan nan nan nan nan nan nan nan nan 214 226 221 nan nan 235 nan nan nan nan nan 242 242 nan nan 249 238 237 247 258 261 262 266 270 271 269 268 nan nan nan nan nan nan nan nan nan nan nan nan nan nan nan nan nan nan nan nan nan nan nan nan nan nan nan nan nan nan nan nan nan nan nan nan nan nan nan nan nan nan nan nan nan nan nan
nan nan nan nan nan nan nan nan nan nan nan nan 234 nan 221 nan nan nan nan nan nan nan nan 242 242 241 nan 243 248 255 259 264 266 267 267 268 269 268 nan nan nan nan nan nan nan nan nan nan nan nan nan nan nan nan nan nan nan nan nan nan nan nan nan nan nan nan nan nan nan nan nan nan nan nan nan nan nan nan nan nan nan nan nan nan nan nan
nan nan nan nan nan 221 nan nan nan nan nan 219 227 234 227 nan 229 238 nan nan nan nan nan 245 243 243 245 253 256 261 264 265 266 269 268 nan 268 nan nan nan nan nan nan nan nan nan nan nan nan nan nan nan nan nan nan nan nan nan nan nan nan nan nan nan nan nan nan nan nan nan nan nan nan nan nan nan nan nan nan nan nan nan nan nan nan nan
nan nan nan nan nan nan nan nan nan nan nan nan 225 224 223 nan 226 230 nan nan nan 241 243 247 nan 248 252 255 258 261 262 267 271 273 273 271 nan nan nan nan nan nan nan nan nan nan nan nan nan nan nan nan nan nan nan nan nan nan nan nan nan nan nan nan nan nan nan nan nan nan nan nan nan nan nan nan nan nan nan nan nan nan nan nan nan nan
nan nan nan nan nan nan nan nan nan nan nan 217 220 221 224 nan 226 228 nan nan nan nan nan nan 249 251 253 257 258 257 262 266 270 271 nan nan 274 nan nan nan nan nan nan nan nan nan nan nan nan nan nan nan nan nan nan nan nan nan nan nan nan nan nan nan nan nan nan nan nan nan nan nan nan nan nan nan nan nan nan nan nan nan nan nan nan nan
nan nan nan 217 216 nan nan nan nan nan nan 219 219 nan 225 nan nan nan nan nan nan nan nan 244 252 nan nan 253 258 256 259 266 nan nan nan 271 nan nan nan nan nan nan nan nan nan nan nan nan nan nan nan nan nan nan nan nan nan nan nan nan nan nan nan nan nan nan nan nan nan nan nan nan nan nan nan nan nan nan nan nan nan nan nan nan nan nan
nan nan nan nan nan nan nan nan nan nan nan nan 221 224 227 227 nan nan nan nan nan nan nan nan 251 nan nan nan 261 262 nan nan nan 267 268 nan nan nan nan nan nan nan nan nan nan nan nan nan nan nan nan nan nan nan nan nan nan nan nan nan nan nan nan nan nan nan nan nan nan nan nan nan nan nan nan nan nan nan nan nan nan nan nan nan nan nan
nan nan nan nan 226 nan nan nan nan nan nan nan nan 220 222 228 nan nan nan nan nan nan nan nan nan nan nan nan 260 nan nan nan nan 269 269 nan 270 272 nan nan nan nan nan nan nan nan nan nan nan nan nan nan nan nan nan nan nan nan nan nan nan nan nan nan nan nan nan nan nan nan nan nan nan nan nan nan nan nan nan nan nan nan nan nan nan nan
nan nan nan nan nan nan nan nan nan nan nan nan nan 221 226 229 nan nan nan nan nan nan nan nan nan nan nan nan nan nan nan nan nan nan 268 269 272 nan nan nan nan nan nan nan nan nan nan nan nan nan nan nan nan nan nan nan nan nan nan nan nan nan nan nan nan nan nan nan nan nan nan nan nan nan nan nan nan nan nan nan nan nan nan nan nan nan
nan nan nan nan nan nan nan nan nan nan nan nan nan nan nan nan nan nan nan nan nan nan nan nan nan nan nan 257 nan 263 268 269 262 nan nan nan nan nan nan nan nan nan nan nan nan nan nan nan nan nan nan nan nan nan nan nan nan nan nan nan nan nan nan nan nan nan nan nan nan nan nan nan nan nan nan nan nan nan nan nan nan nan nan nan nan nan